Other Surface Observations
Issued by NWS

Home | Current Version | Previous Version | Text Only | Print | Product List | Glossary On
Versions: 1 2 3 4 5 6 7 8 9 10 11 12 13 14 15 16 17 18 19 20 21 22 23 24 25 26 27 28 29 30 31 32 33 34 35 36 37 38 39 40 41 42 43 44 45 46 47 48 49 50
000
SXUS52 KTAE 010818
OSOTAE
OSOTAE
North Florida/South Alabama/Southwest Georgia Weather Roundup
National Weather Service Tallahassee Florida
400 AM EDT MON SEP 01 2014

Note: "fair" indicates few or no clouds below 12,000 feet with no
significant weather and/or obstructions to visibility.

!FLZ017-115-028-034-025-010900
...North Florida...

CITY           SKY/WX    TMP DP  RH WIND       PRES   REMARKS
TALLAHASSEE    PTCLDY    75  71  87 CALM      30.07F
APALACHICOLA   CLEAR     76  74  93 CALM      30.05F
PERRY          CLOUDY    73  72  94 CALM      30.07F
CROSS CITY       N/A     74  72  93 CALM      30.06F
HOMERVILLE     FAIR      75  73  94 CALM      30.07F
JACKSONVILLE   PTCLDY    75  74  96 S3        30.06F
$$

!FLZ112-006-005-002-011-010900
...Florida Panhandle...

CITY           SKY/WX    TMP DP  RH WIND       PRES   REMARKS
MARIANNA       CLEAR     74  74 100 CALM      30.06F
BONIFAY        FAIR      71  70  96 CALM      30.07F FOG
PANAMA CITY NW FAIR      76  73  91 NE3       30.05F
TYNDALL AFB    CLEAR     76  75  99 CALM      30.06F
TYND DRONE APT NOT AVBL
DE FUNIAK SPR  FAIR      73  72  97 CALM      30.07F
EGLIN AFB      PTCLDY    77  74  90 N3        30.05F
DESTIN         PTCLDY    84  76  76 SE6       30.05F HX  93
HURLBURT       CLEAR     76  70  82 N1        30.04F
CRESTVIEW      PTCLDY    72  70  93 CALM      30.08F
PENSACOLA      PTCLDY    77  75  93 SE5       30.03F
$$

!ALZ063-066-010900
...South Alabama...

CITY           SKY/WX    TMP DP  RH WIND       PRES   REMARKS
DOTHAN         CLEAR     75  69  81 CALM      30.11F
OZARK CAIRNS   CLEAR     73  70  91 NW3       30.07F
FT RUCKER HELI CLEAR     72  70  93 CALM      30.07F
RUCKER HELI 3  FAIR      72  71  96 S1        30.10F
RUCKER HELI 2  FAIR      73  70  90 CALM      30.07F
FLORALA APT    PTCLDY    72  69  90 CALM      30.09F
ANDALUSIA      PTCLDY    75  71  87 SE3       30.07F
TROY           PTCLDY    73  70  90 CALM      30.08F
EUFALA         FAIR      74  71  91 CALM      30.07S
MOBILE           N/A     77  76  96 SE3       30.04F
$$

!GAZ120>161-010900
...Southwest and South Central Georgia...

CITY           SKY/WX    TMP DP  RH WIND       PRES   REMARKS
THOMASVILLE    FAIR      77  77 100 CALM      30.09S
BAINBRIDGE     PTCLDY    79  77  94 CALM      30.07F
MOODY AFB      CLOUDY    75  73  93 SE3       30.07F
VALDOSTA       CLOUDY    74  73  97 CALM      30.07F
MOULTRIE       PTCLDY    77  73  88 CALM      30.08F
BLAKELY        CLEAR     73  72  94 CALM        N/A
ALBANY         CLEAR     75  73  93 CALM      30.09F
TIFTON         FAIR      75  73  93 CALM      30.08S
FITZGERALD     FAIR      76  73  91 CALM      30.10S
CORDELE        FAIR      78  73  84 CALM      30.08F
AMERICUS       FAIR      73  72  94 CALM      30.09F
$$

!GMZ750-755-770-775-010900
...Coastal and Buoy Obs...

STATION/POSITION TIME  TEMP    WIND        PRES    VSBY  WAVE
                       AIR SEA DIR/SP/G                  HT/PER
                 (UTC) (F)     (DEG/KT/KT) (MB)    (MI)  (FT/S)
KEATON BEACH     0800   75      50/  4/  5 1018.1F
CEDAR KEY        0800   79      60/  7/  8 1018.5F
C TOWER          0800   83     140/  8/ 10 1017.7F
APALACHICOLA BUO 0800   84 86  120/  6/  8 1017.4F         3/ 6
PANAMA CITY BUOY 0742   84 86  130/ 12/ 14 1017.0F         4/ 7
MOBILE BUOY      0800   84 85  130/ 14/ 16 1016.4
ORANGE BCH AL BU 0800   84 86  160/ 10/ 12 1016.9F         3/ 7
$$



USA.gov is the U.S. government's official web portal to all federal, state and local government web resources and services.